Date_and_time,latitude,longitude,wind_speed,RelWindDirFrom,WindDirFrom,air_pressure,air_temperature,relative_humidity,Temp,platform_speed_wrt_ground,air_pressure_at_mean_sea_level,platform_orientation
2019-02-05 23:40,50.6304466666667,-96.98077,5.9,7.8,5,999.62,-21.9,68,0.31,0.0,1030.34,323.4
2019-02-05 23:50,50.630445,-96.98077,6.2,7.8,9,999.48,-21.8,68,0.31,0.0,1030.18,323.4
2019-02-06 00:00,50.630445,-96.98077,6.0,7.8,8,999.50,-21.7,69,0.31,0.0,1030.20,229.4
2019-02-06 00:10,50.630445,-96.98077,6.7,8.4,2,999.38,-21.6,69,0.31,0.0,1030.07,229.4
2019-02-06 00:20,50.630445,-96.98077,7.2,8.9,3,999.22,-21.5,70,0.31,0.0,1029.88,229.4
2019-02-06 00:30,50.630445,-96.98077,7.1,8.7,1,999.23,-21.3,70,0.31,0.0,1029.88,229.4
2019-02-06 00:40,50.630445,-96.98077,6.6,8.3,349,999.21,-21.3,70,0.31,0.0,1029.86,229.4
2019-02-06 00:50,50.630445,-96.98077,6.3,8.2,354,999.27,-21.1,70,0.31,0.0,1029.91,229.4
2019-02-06 01:00,50.630445,-96.98077,7.7,10.0,360,999.29,-21.0,69,0.31,0.0,1029.91,360.0
2019-02-06 01:10,50.6304416666667,-96.9807666666667,7.8,10.6,356,999.32,-20.9,69,0.31,0.0,1029.94,360.0
2019-02-06 01:20,50.6304433333333,-96.980765,6.1,8.5,345,999.36,-21.0,70,0.31,0.0,1029.99,360.0
2019-02-06 01:30,50.6304433333333,-96.9807683333333,6.7,8.7,346,999.32,-21.2,69,0.31,0.0,1029.96,360.0
2019-02-06 01:40,50.6304433333333,-96.9807683333333,6.9,8.4,344,999.28,-21.3,70,0.31,0.0,1029.91,360.0
2019-02-06 01:50,50.630445,-96.98077,6.4,9.1,342,999.22,-21.3,71,0.31,0.0,1029.85,360.0
2019-02-06 02:00,50.630445,-96.9807716666667,6.1,7.4,346,999.13,-21.4,71,0.31,0.0,1029.75,360.0
2019-02-06 02:10,50.6304466666667,-96.9807716666667,5.7,7.3,340,999.11,-21.4,72,0.31,0.0,1029.72,360.0
2019-02-06 02:20,50.6304483333333,-96.9807733333333,4.7,7.3,332,999.22,-21.4,73,0.31,0.0,1029.83,360.0
2019-02-06 02:30,50.6304483333333,-96.9807716666667,3.7,5.3,331,999.37,-21.4,73,0.31,0.0,1029.98,360.0
2019-02-06 02:40,50.6304483333333,-96.9807716666667,3.1,5.0,331,999.39,-21.3,73,0.31,0.0,1029.98,360.0
2019-02-06 02:50,50.63045,-96.98077,3.7,4.6,331,999.42,-21.2,74,0.31,0.0,1030.00,360.0
2019-02-06 03:00,50.63045,-96.9807716666667,4.4,5.9,334,999.41,-21.2,74,0.31,0.0,1029.98,360.0
2019-02-06 03:10,50.63045,-96.9807716666667,4.1,5.6,325,999.48,-21.2,74,0.31,0.0,1030.07,360.0
2019-02-06 03:20,50.630465,-96.9807683333333,4.7,6.3,333,999.32,-21.1,74,0.31,0.0,1029.90,360.0
2019-02-06 03:30,50.6304516666667,-96.98077,5.2,7.0,333,999.31,-21.1,75,0.31,0.0,1029.89,360.0
2019-02-06 03:40,50.6304416666667,-96.9807716666667,4.9,6.9,332,999.35,-21.1,75,0.31,0.0,1029.94,360.0
2019-02-06 03:50,50.63045,-96.980775,5.6,7.5,339,999.30,-21.1,75,0.31,0.0,1029.89,360.0
2019-02-06 04:00,50.63044,-96.9807533333333,6.2,8.1,342,999.30,-21.0,76,0.31,0.0,1029.89,90.0
2019-02-06 04:10,50.6304416666667,-96.98076,5.9,7.7,344,999.35,-20.8,76,0.31,0.0,1029.93,90.0
2019-02-06 04:20,50.6304433333333,-96.980765,6.8,8.5,348,999.30,-20.7,77,0.31,0.0,1029.87,90.0
2019-02-06 04:30,50.6304433333333,-96.9807633333333,8.1,11.8,354,999.24,-20.5,78,0.31,0.0,1029.79,90.0
2019-02-06 04:40,50.630445,-96.9807666666667,9.7,13.1,356,999.22,-20.3,78,0.31,0.0,1029.75,90.0
2019-02-06 04:50,50.6304466666667,-96.98077,9.8,12.3,355,999.11,-20.4,78,0.32,0.0,1029.64,90.0
2019-02-06 05:00,50.6304566666667,-96.98078,8.7,11.7,351,999.21,-20.4,78,0.32,0.0,1029.75,323.4
2019-02-06 05:10,50.6304516666667,-96.980765,9.4,12.5,347,999.12,-20.5,77,0.32,0.0,1029.65,323.4
2019-02-06 05:20,50.63045,-96.9807616666667,9.0,12.5,346,999.06,-20.6,78,0.32,0.0,1029.59,323.4
2019-02-06 05:30,50.6304516666667,-96.980765,9.8,13.4,350,999.08,-20.6,78,0.32,0.0,1029.62,323.4
2019-02-06 05:40,50.6304516666667,-96.980765,8.1,10.7,347,999.30,-20.6,78,0.32,0.0,1029.84,323.4
2019-02-06 05:50,50.6304516666667,-96.980765,8.0,10.4,345,999.40,-20.7,78,0.31,0.0,1029.95,323.4
2019-02-06 06:00,50.6304566666667,-96.9807783333333,7.0,9.5,347,999.49,-20.6,78,0.31,0.0,1030.03,270.0
2019-02-06 06:10,50.6304566666667,-96.9807783333333,7.4,9.9,354,999.39,-20.6,78,0.31,0.0,1029.91,270.0
2019-02-06 06:20,50.630435,-96.980775,6.4,8.1,354,999.36,-20.6,79,0.31,0.0,1029.87,270.0
2019-02-06 06:30,50.6304516666667,-96.9807783333333,7.0,9.1,355,999.39,-20.6,79,0.31,0.0,1029.89,270.0
2019-02-06 06:40,50.63046,-96.9807816666667,8.0,10.5,354,999.31,-20.6,79,0.31,0.0,1029.81,270.0
2019-02-06 06:50,50.6304616666667,-96.98081,8.5,11.0,356,999.18,-20.6,79,0.31,0.0,1029.68,270.0
2019-02-06 07:00,50.6304583333333,-96.98079,8.8,11.1,352,999.22,-20.7,79,0.31,0.0,1029.73,301.3
2019-02-06 07:10,50.6304516666667,-96.9808066666667,7.9,10.7,340,999.46,-20.7,78,0.31,0.0,1029.98,301.3
2019-02-06 07:20,50.630445,-96.9807766666667,7.1,9.9,337,999.60,-20.8,78,0.31,0.0,1030.14,301.3
2019-02-06 07:30,50.63045,-96.9807766666667,6.6,8.6,337,999.54,-20.8,78,0.31,0.0,1030.08,301.3
2019-02-06 07:40,50.6304566666667,-96.9807833333333,7.2,8.6,339,999.46,-20.8,78,0.31,0.0,1030.00,301.3
2019-02-06 07:50,50.6304266666667,-96.9807516666667,6.5,8.7,340,999.51,-20.8,78,0.31,0.0,1030.04,301.3
2019-02-06 08:00,50.6304366666667,-96.9807566666667,7.5,9.6,340,999.34,-20.8,78,0.31,0.0,1029.87,131.6
2019-02-06 08:10,50.63044,-96.9807633333333,7.6,10.5,337,999.28,-20.9,78,0.31,0.0,1029.81,131.6
2019-02-06 08:20,50.6304416666667,-96.9807666666667,7.9,10.2,342,999.19,-20.9,78,0.31,0.0,1029.72,131.6
2019-02-06 08:30,50.6304416666667,-96.98077,8.5,11.2,340,999.23,-20.9,78,0.31,0.0,1029.76,131.6
2019-02-06 08:40,50.6304416666667,-96.9807866666667,8.7,11.5,342,999.25,-20.9,78,0.31,0.0,1029.78,131.6
2019-02-06 08:50,50.6304333333333,-96.980765,9.0,11.4,343,999.16,-20.9,78,0.31,0.0,1029.70,131.6
2019-02-06 09:00,50.63044,-96.9807683333333,9.0,12.8,343,999.12,-20.9,78,0.31,0.0,1029.66,124.8
2019-02-06 09:10,50.6304433333333,-96.9807683333333,9.4,12.5,344,999.02,-20.9,78,0.31,0.0,1029.56,124.8
2019-02-06 09:20,50.6304483333333,-96.980765,9.8,12.7,345,998.99,-20.9,78,0.31,0.0,1029.53,124.8
2019-02-06 09:30,50.63045,-96.9807666666667,9.8,12.9,343,998.89,-20.9,78,0.31,0.0,1029.43,124.8
2019-02-06 09:40,50.630445,-96.9807616666667,9.1,12.6,341,999.00,-20.9,77,0.31,0.0,1029.53,124.8
2019-02-06 09:50,50.6304383333333,-96.9808033333333,8.5,11.2,343,999.04,-20.8,77,0.31,0.0,1029.58,124.8
2019-02-06 10:00,50.6304466666667,-96.9807666666667,7.4,10.3,340,999.09,-20.8,77,0.31,0.0,1029.63,122.3
2019-02-06 10:10,50.63044,-96.9807733333333,8.4,11.7,343,998.97,-20.8,77,0.31,0.0,1029.51,122.3
2019-02-06 10:20,50.630455,-96.9807783333333,8.9,10.9,340,998.88,-20.8,77,0.31,0.0,1029.42,122.3
2019-02-06 10:30,50.6304383333333,-96.98076,9.0,11.7,342,998.86,-20.8,77,0.31,0.0,1029.40,122.3
2019-02-06 10:40,50.63045,-96.980765,9.5,12.7,342,998.92,-20.9,77,0.31,0.0,1029.46,122.3
2019-02-06 10:50,50.6304483333333,-96.9807683333333,9.3,12.3,341,998.91,-20.9,76,0.31,0.0,1029.46,122.3
2019-02-06 11:00,50.63045,-96.98077,9.2,11.9,338,998.95,-21.0,76,0.31,0.0,1029.50,360.0
2019-02-06 11:10,50.63045,-96.9807733333333,8.4,10.7,337,999.09,-21.0,76,0.31,0.0,1029.64,360.0
2019-02-06 11:20,50.63045,-96.9807716666667,7.7,10.7,341,999.17,-21.0,76,0.31,0.0,1029.72,360.0
2019-02-06 11:30,50.63045,-96.9807733333333,8.5,12.0,340,999.15,-21.0,76,0.31,0.0,1029.70,360.0
2019-02-06 11:40,50.6304516666667,-96.980755,8.4,11.8,335,999.20,-21.0,76,0.31,0.0,1029.75,360.0
2019-02-06 11:50,50.630475,-96.9807566666667,8.2,11.0,337,999.31,-21.1,76,0.31,0.0,1029.87,360.0
2019-02-06 12:00,50.6304533333333,-96.9807716666667,8.3,10.9,334,999.39,-21.1,76,0.31,0.0,1029.95,318.7
2019-02-06 12:10,50.6304616666667,-96.9807833333333,8.9,11.7,335,999.39,-21.1,76,0.31,0.0,1029.96,318.7
2019-02-06 12:20,50.630415,-96.9807433333333,10.1,14.0,340,999.26,-21.2,76,0.31,0.0,1029.82,318.7
2019-02-06 12:30,50.6304383333333,-96.98076,9.9,14.7,343,999.21,-21.2,76,0.31,0.0,1029.78,318.7
2019-02-06 12:40,50.6304516666667,-96.98076,11.6,15.0,341,999.22,-21.2,76,0.31,0.0,1029.79,318.7
2019-02-06 12:50,50.6304516666667,-96.9807633333333,11.0,14.9,338,999.40,-21.3,76,0.31,0.0,1029.99,318.7
2019-02-06 13:00,50.6304516666667,-96.980765,10.8,13.7,338,999.57,-21.3,76,0.31,0.0,1030.16,360.0
2019-02-06 13:10,50.6304666666667,-96.9807783333333,11.2,14.8,340,999.66,-21.4,76,0.31,0.0,1030.26,360.0
2019-02-06 13:20,50.6304633333333,-96.9807816666667,11.6,15.0,345,999.56,-21.4,75,0.31,0.0,1030.16,360.0
2019-02-06 13:30,50.63046,-96.9807716666667,11.6,16.0,344,999.63,-21.5,75,0.31,0.0,1030.23,360.0
2019-02-06 13:40,50.6304433333333,-96.9807716666667,11.9,15.9,342,999.71,-21.5,75,0.31,0.0,1030.33,360.0
2019-02-06 13:50,50.6304483333333,-96.98077,11.0,14.5,342,999.83,-21.6,75,0.31,0.0,1030.45,360.0
2019-02-06 14:00,50.6304516666667,-96.9807666666667,10.8,14.3,343,999.92,-21.7,75,0.31,0.0,1030.55,0.0
2019-02-06 14:10,50.630445,-96.980745,10.6,14.4,340,999.98,-21.8,75,0.31,0.0,1030.63,0.0
2019-02-06 14:20,50.63045,-96.98076,10.3,15.5,341,999.98,-22.0,75,0.31,0.0,1030.64,0.0
2019-02-06 14:30,50.6304483333333,-96.9807583333333,11.6,16.0,342,999.86,-22.0,75,0.31,0.0,1030.52,0.0
2019-02-06 14:40,50.6304466666667,-96.980755,12.8,17.0,345,999.70,-22.1,74,0.31,0.0,1030.36,0.0
2019-02-06 14:50,50.6304466666667,-96.9807566666667,12.5,16.3,344,999.66,-22.1,74,0.31,0.0,1030.32,0.0
2019-02-06 15:00,50.6304466666667,-96.9807566666667,12.6,17.1,343,999.76,-22.1,74,0.31,0.0,1030.43,119.2
2019-02-06 15:10,50.6304483333333,-96.9807566666667,12.5,16.6,345,999.90,-22.1,74,0.30,0.0,1030.58,119.2
2019-02-06 15:20,50.6304483333333,-96.9807583333333,12.3,16.7,342,1000.01,-22.0,73,0.31,0.0,1030.68,119.2
2019-02-06 15:30,50.6304483333333,-96.9807583333333,12.2,15.5,345,1000.03,-21.6,71,0.30,0.0,1030.70,119.2
2019-02-06 15:40,50.6304483333333,-96.98076,13.1,18.5,350,1000.14,-21.4,71,0.30,0.0,1030.79,119.2
2019-02-06 15:50,50.6304433333333,-96.9807616666667,13.9,18.0,348,1000.27,-21.2,70,0.30,0.0,1030.92,119.2
2019-02-06 16:00,50.630475,-96.9807633333333,13.8,20.0,351,1000.48,-21.0,70,0.30,0.0,1031.14,25.7
2019-02-06 16:10,50.63044,-96.9807616666667,14.3,18.7,351,1000.46,-20.8,69,0.30,0.0,1031.10,25.7
2019-02-06 16:20,50.6304416666667,-96.9807616666667,14.2,18.7,354,1000.35,-20.7,69,0.30,0.0,1031.00,25.7
2019-02-06 16:30,50.6304433333333,-96.980765,15.0,19.5,354,1000.37,-20.6,69,0.30,0.0,1031.01,25.7
2019-02-06 16:40,50.630445,-96.980765,16.7,20.7,354,1000.23,-20.6,69,0.30,0.0,1030.86,25.7
2019-02-06 16:50,50.6304433333333,-96.9807666666667,14.4,17.7,353,1000.29,-20.5,68,0.30,0.0,1030.92,25.7
2019-02-06 17:00,50.630445,-96.9807683333333,15.6,19.8,351,1000.34,-20.5,68,0.30,0.0,1030.98,360.0
2019-02-06 17:10,50.630445,-96.98077,14.3,18.2,351,1000.55,-20.4,67,0.30,0.0,1031.17,360.0
2019-02-06 17:20,50.6304433333333,-96.98077,13.7,17.5,349,1000.76,-20.1,66,0.30,0.0,1031.36,360.0
2019-02-06 17:30,50.6304433333333,-96.98077,13.4,16.4,351,1000.72,-20.0,66,0.30,0.0,1031.30,360.0
2019-02-06 17:40,50.6304433333333,-96.98077,13.2,17.5,352,1000.68,-19.9,66,0.30,0.0,1031.24,360.0
2019-02-06 17:50,50.6304416666667,-96.98078,13.7,18.0,353,1000.44,-19.7,66,0.30,0.0,1030.96,360.0
2019-02-06 18:00,50.630445,-96.980775,13.7,17.9,355,1000.24,-19.6,66,0.30,0.0,1030.74,234.7
2019-02-06 18:10,50.630445,-96.9807733333333,12.3,16.3,355,1000.34,-19.3,65,0.30,0.0,1030.82,234.7
2019-02-06 18:20,50.6304466666667,-96.980775,11.5,14.7,356,1000.49,-19.2,64,0.30,0.0,1030.95,234.7
2019-02-06 18:30,50.6304483333333,-96.9807733333333,11.9,15.0,359,1000.50,-19.0,64,0.30,0.0,1030.95,234.7
2019-02-06 18:40,50.6304483333333,-96.9807733333333,10.1,13.2,356,1000.77,-18.8,63,0.30,0.0,1031.21,234.7
2019-02-06 18:50,50.6304483333333,-96.9807733333333,11.7,15.2,359,1000.72,-18.7,62,0.30,0.0,1031.15,234.7
2019-02-06 19:00,50.6304483333333,-96.9807733333333,11.4,13.9,359,1000.78,-18.7,62,0.30,0.0,1031.21,193.3
2019-02-06 19:10,50.6304483333333,-96.9807733333333,11.2,15.0,359,1000.54,-18.4,61,0.30,0.0,1030.93,193.3
2019-02-06 19:20,50.6304483333333,-96.980775,12.0,15.3,358,1000.52,-18.4,61,0.30,0.0,1030.90,193.3
2019-02-06 19:30,50.6304483333333,-96.9807733333333,11.0,14.6,352,1000.91,-18.3,61,0.30,0.0,1031.29,193.3
2019-02-06 19:40,50.6304483333333,-96.980775,13.0,17.6,354,1000.72,-18.4,60,0.30,0.0,1031.09,193.3
2019-02-06 19:50,50.6304483333333,-96.980775,11.7,15.5,348,1000.88,-18.0,59,0.30,0.0,1031.22,193.3
2019-02-06 20:00,50.6304483333333,-96.9807733333333,12.7,18.2,345,1000.71,-17.8,58,0.31,0.0,1031.02,347.4
2019-02-06 20:10,50.6304483333333,-96.9807733333333,14.0,18.6,342,1000.43,-17.9,57,0.31,0.0,1030.73,347.4
2019-02-06 20:20,50.6304483333333,-96.9807733333333,12.9,17.1,348,1000.44,-17.8,58,0.31,0.0,1030.72,347.4
2019-02-06 20:30,50.630435,-96.98076,11.5,16.3,345,1000.70,-17.7,58,0.31,0.0,1030.98,347.4
2019-02-06 20:40,50.6304433333333,-96.980765,11.2,15.8,342,1000.75,-17.7,58,0.31,0.0,1031.02,347.4
2019-02-06 20:50,50.630445,-96.9807683333333,13.0,17.7,347,1000.77,-17.7,58,0.31,0.0,1031.03,347.4
2019-02-06 21:00,50.6304533333333,-96.9807616666667,13.5,17.4,347,1000.70,-17.7,58,0.31,0.0,1030.95,36.6
2019-02-06 21:10,50.6304466666667,-96.9807566666667,14.0,17.2,343,1000.71,-17.8,57,0.31,0.0,1030.97,36.6
2019-02-06 21:20,50.6304483333333,-96.9807583333333,13.9,19.0,345,1000.69,-17.9,58,0.31,0.0,1030.95,36.6
2019-02-06 21:30,50.6304483333333,-96.98076,15.1,19.2,345,1000.64,-18.3,58,0.32,0.0,1030.93,36.6
2019-02-06 21:40,50.63044,-96.9807583333333,11.9,15.7,341,1000.98,-18.6,59,0.32,0.0,1031.27,36.6
2019-02-06 21:50,50.6304433333333,-96.9807616666667,12.9,18.6,337,1001.15,-18.7,58,0.32,0.0,1031.44,36.6
2019-02-06 22:00,50.6304616666667,-96.9807683333333,13.9,17.8,342,1001.21,-18.7,60,0.32,0.0,1031.51,360.0
2019-02-06 22:10,50.6304583333333,-96.9807633333333,12.1,15.8,343,1001.17,-18.8,60,0.32,0.0,1031.46,360.0
2019-02-06 22:20,50.6304516666667,-96.98076,15.5,20.6,342,1000.90,-19.1,60,0.32,0.0,1031.20,360.0
2019-02-06 22:30,50.6304516666667,-96.9807683333333,12.8,19.7,336,1001.11,-19.3,60,0.32,0.0,1031.42,360.0
2019-02-06 22:40,50.63044,-96.9807733333333,12.0,16.1,343,1000.91,-19.4,61,0.32,0.0,1031.22,360.0
2019-02-06 22:50,50.6304416666667,-96.9807716666667,15.2,19.0,343,1000.73,-19.5,60,0.32,0.0,1031.05,360.0
2019-02-06 23:00,50.6304416666667,-96.98077,14.1,20.1,340,1000.77,-19.6,61,0.33,0.0,1031.11,167.4
2019-02-06 23:10,50.6304433333333,-96.9807666666667,10.9,15.9,331,1001.27,-19.6,60,0.33,0.0,1031.62,167.4
2019-02-06 23:20,50.6304433333333,-96.9807666666667,10.6,15.0,326,1001.54,-19.7,60,0.33,0.0,1031.93,167.4
2019-02-06 23:30,50.6304433333333,-96.9807683333333,12.2,18.2,330,1001.55,-19.9,61,0.33,0.0,1031.97,167.4
2019-02-06 23:40,50.6304433333333,-96.9807666666667,13.1,17.5,333,1001.39,-20.0,61,0.33,0.0,1031.82,167.4
2019-02-06 23:50,50.6304433333333,-96.9807666666667,13.1,18.9,335,1001.65,-20.2,61,0.33,0.0,1032.10,167.4
